Regional Weather Roundup
Issued by NWS

Home | Current Version | Previous Version | Graphics & Text | Print | Product List | Glossary On
Versions: 1 2 3 4 5 6 7 8 9 10 11 12 13 14 15 16 17 18 19 20 21 22 23 24 25 26 27 28 29 30 31 32 33 34 35 36 37 38 39 40 41 42 43 44 45 46 47 48 49 50
000
ASUS45 KBOI 250110
RWRID

IDAHO REGIONAL WEATHER ROUNDUP
NATIONAL WEATHER SERVICE BOISE ID
700 PM MDT TUE MAY 24 2016

NOTE: "FAIR" INDICATES FEW OR NO CLOUDS BELOW 12000 FEET
WITH NO SIGNIFICANT WEATHER AND/OR OBSTRUCTIONS TO VISIBILITY

IDZ012-014-250200-
SOUTHWEST IDAHO


CITY           SKY/WX    TMP DP  RH WIND       PRES   REMARKS
BOISE          FAIR      71  30  21 NW17      29.81R
CALDWELL       FAIR      71  36  27 NW12      29.82S
MOUNTAIN HOME  MOSUNNY   73  39  28 NW18G24   29.81S
$$

IDZ016-017-250200-
SOUTHCENTRAL IDAHO


CITY           SKY/WX    TMP DP  RH WIND       PRES   REMARKS
BURLEY         PTSUNNY   62  39  42 S8        29.82F
JEROME         PTSUNNY   65  37  35 NW6       29.83S
TWIN FALLS     PTSUNNY   62  37  39 W6        29.84R
$$

IDZ019>023-250200-
SOUTHEAST IDAHO


CITY           SKY/WX    TMP DP  RH WIND       PRES   REMARKS
IDAHO FALLS    LGT RAIN  56  41  57 E17G23    29.86R
POCATELLO      CLOUDY    55  39  54 E13       29.86R
REXBURG        CLOUDY    57  33  40 S16G22    29.83R
$$

IDZ006-010-011-018-031-032-250200-
CENTRAL IDAHO MOUNTAINS


CITY           SKY/WX    TMP DP  RH WIND       PRES   REMARKS
MCCALL         PTSUNNY   54  35  48 NW12      29.88R
HAILEY         MOSUNNY   59  37  44 NW9G17    29.88S
STANLEY          N/A     51  31  46 N14G21    29.91R
SALMON         MOSUNNY   57  39  51 N5        29.85S
CHALLIS        CLOUDY    54  38  54 S6        29.87S
$$

IDZ002-004-006-007-026-250200-
NORTHERN IDAHO


CITY           SKY/WX    TMP DP  RH WIND       PRES   REMARKS
LEWISTON       MOSUNNY   68  44  42 NE8       29.89S
LOWELL           N/A     58  53  84 VRB5      29.91S
COEUR D`ALENE  FAIR      63  46  55 SE6       29.87F
MULLAN PASS    PTSUNNY   42  41  96 N3        29.96S
$$



USA.gov is the U.S. government's official web portal to all federal, state and local government web resources and services.